Regional Weather Roundup
Issued by NWS

Home | Current Version | Previous Version | Text Only | Print | Product List | Glossary Off
Versions: 1 2 3 4 5 6 7 8 9 10 11 12 13 14 15 16 17 18 19 20 21 22 23 24 25 26 27 28 29 30 31 32 33 34 35 36 37 38 39 40 41 42 43 44 45 46 47 48 49 50

000
ASUS44 KMEG 161410
RWRTN
TENNESSEE HOURLY STATE WEATHER ROUNDUP
NATIONAL WEATHER SERVICE MEMPHIS TN
900 AM CDT TUE SEP 16 2014

TNZ002-004-019-021-049-052-054-088>092-161500-
WEST TENNESSEE

CITY           SKY/WX    TMP DP  RH WIND       PRES   REMARKS
MEMPHIS INTL   CLOUDY    72  64  78 NE7       30.13R
NWS MEMPHIS      N/A     68 N/A N/A MISG        N/A
JACKSON        CLOUDY    68  65  90 NE7       30.14R
DYERSBURG      CLOUDY    66  54  63 NE10      30.16R
UNION CITY     CLOUDY    63  61  94 N10       30.15S
PARIS          CLOUDY    63  59  88 N7        30.16R
HUNTINGDON     CLOUDY    64  62  93 N8        30.15R
LEXINGTON      CLOUDY    66  64  94 NE5       30.13R
SAVANNAH       SUNNY     73  70  88 N6        30.12S
$$

TNZ008-025-027-028-033-062-065-066-161500-
NORTH MIDDLE TENNESSEE

CITY           SKY/WX    TMP DP  RH WIND       PRES   REMARKS
NASHVILLE      CLOUDY    70  64  81 N8        30.13R
DICKSON          N/A     66  63  88 N8        30.13S
PORTLAND       MOSUNNY   63  63 100 N8        30.13R
CLARKSVILLE    CLOUDY    63  59  87 N13       30.15R
LEBANON        CLOUDY    68  64  86 N8        30.12R
SMYRNA         PTSUNNY   70  65  84 N10       30.14R
COOKEVILLE       N/A     70  66  88 CALM      30.13R
LIVINGSTON     CLOUDY    65  62  90 VRB3      30.14S
GALLATIN       CLOUDY    68  67  96 N3        30.14R
CROSSVILLE     CLOUDY    69  62  78 W6        30.15F
$$

TNZ061-075-076-078-094-096-097-161500-
SOUTH MIDDLE TENNESSEE

CITY           SKY/WX    TMP DP  RH WIND       PRES   REMARKS
LEWISBURG      MOSUNNY   71  66  84 CALM      30.12S
FAYETTEVILLE   SUNNY     72  63  73 N7        30.12F
TULLAHOMA      SUNNY     72  64  78 N5        30.14S
WINCHESTER     SUNNY     73  66  78 N8        30.13F
MCMINNVILLE    MOSUNNY   73  72  94 CALM      30.13S
COLUMBIA       SUNNY     70  70 100 CALM      30.11S
SHELBYVILLE    MOSUNNY   72  66  83 CALM      30.14R
$$

TNZ017-018-042-046-047-161500-
NORTHEAST TENNESSEE

CITY           SKY/WX    TMP DP  RH WIND       PRES   REMARKS
TRI CITIES     CLOUDY    70  65  84 CALM      30.12S
ELIZABETHTON   CLOUDY    64  64 100 CALM      30.13S
$$

TNZ012-013-036-069-073-074-161500-
CENTRAL EAST TENNESSEE

CITY           SKY/WX    TMP DP  RH WIND       PRES   REMARKS
KNOXVILLE      PTSUNNY   73  66  78 W9        30.11R
OAK RIDGE      CLOUDY    73  66  78 CALM      30.12S
GATLINBURG     PTSUNNY   73  66  78 VRB6      30.11S
MORRISTOWN     MOSUNNY   72  66  83 W5        30.13R
$$

TNZ083-085-099-161500-
SOUTHEAST TENNESSEE

CITY           SKY/WX    TMP DP  RH WIND       PRES   REMARKS
CHATTANOOGA    PTSUNNY   73  70  90 CALM      30.12R
$$

SKY/WX REPORTED AS FAIR MEANS FEW OR NO CLOUDS BELOW
12 THOUSAND FEET.




USA.gov is the U.S. government's official web portal to all federal, state and local government web resources and services.